Regional Weather Roundup
Issued by NWS Cleveland, OH

Home | Current Version | Previous Version | Graphics & Text | Print | Product List | Glossary On
Versions: 1 2 3 4 5 6 7 8 9 10 11 12 13 14 15 16 17 18 19 20 21 22 23 24 25 26 27 28 29 30 31 32 33 34 35 36 37 38 39 40 41 42 43 44 45 46 47 48 49 50
000
ASUS41 KCLE 251402
RWRCLE
OHIO REGIONAL WEATHER ROUNDUP
NATIONAL WEATHER SERVICE CLEVELAND, OH
1000 AM EDT SAT MAR 25 2017

NOTE: "FAIR" INDICATES FEW OR NO CLOUDS BELOW 12,000 FEET WITH NO
SIGNIFICANT WEATHER AND/OR OBSTRUCTIONS TO VISIBILITY.

OHZ001>008-015>018-024>027-034-035-043-044-251500-
   NORTHWEST OHIO

CITY           SKY/WX    TMP DP  RH WIND       PRES   REMARKS
DEFIANCE       CLOUDY    49  42  77 NE10      30.12R
FINDLAY        CLOUDY    64  51  62 SW3       30.11R
TOLEDO EXPRESS CLOUDY    45  41  86 NE10      30.15R
TOLEDO EXEC    PTSUNNY   44  41  89 NE10      30.17R FOG
LIMA           PTSUNNY   63  51  65 S15       30.10S
$$

OHZ009>014-019>023-028>033-038-089-251500-
   NORTHEAST OHIO

CITY           SKY/WX    TMP DP  RH WIND       PRES   REMARKS
CLE-HOPKINS    CLOUDY    60  49  66 SW6       30.17R
CLE-LAKEFRONT  CLOUDY    42  38  85 NE9       30.15R FOG
CUY CO. ARPT   CLOUDY    55  48  76 N6        30.14R
LORAIN-ELYRIA  CLOUDY    50  42  74 N6        30.14R
ASHTABULA      CLOUDY    50  44  80 N7        30.16R
AKRON-CANTON   CLOUDY    63  50  62 SW13      30.16R
WOOSTER        CLOUDY    61  50  67 SW8       30.16R
MANSFIELD      CLOUDY    62  50  64 SW13G23   30.15R
YOUNGSTOWN     CLOUDY    62  51  67 SW12      30.15R
$$

OHZ042-051>053-060>062-070>072-077>081-251500-
  SOUTHWEST OHIO

CITY           SKY/WX    TMP DP  RH WIND       PRES   REMARKS
CINC-COVINGTON CLOUDY    63  50  62 S12       30.13R
CINC-LUNKEN    CLOUDY    63  51  65 S8        30.14S
HAMILTON       PTSUNNY   67  50  54 VRB6      30.14S
DAYTON         PTSUNNY   64  49  57 S16G25    30.12S
WRIGHT-PAT AFB NOT AVBL
DAYTON GENERAL MOSUNNY   65  49  56 S14G22    30.13R
WILMINGTON     PTSUNNY   62  50  64 S14       30.14R
$$

OHZ036-037-039>041-045>050-054>059-063>069-073>076-082>088-251500-
  CENTRAL AND SOUTHEAST OHIO

CITY           SKY/WX    TMP DP  RH WIND       PRES   REMARKS
COLUMBUS       CLOUDY    64  50  60 S9        30.15S
OSU AIRPORT    CLOUDY    63  51  65 S8        30.14S
BOLTON FIELD   SUNNY     63  52  67 S12       30.15S
RICKENBACK AFB MOSUNNY   62  50  66 S9        30.15R
NEWARK         PTSUNNY   63  50  62 S7        30.16R
MARION         MOSUNNY   63  50  62 SW13      30.14S
LANCASTER      CLOUDY    66  49  54 S10       30.16S
ZANESVILLE     CLOUDY    64  49  57 SW9       30.17S
NEW PHILLY     NOT AVBL
$$




USA.gov is the U.S. government's official web portal to all federal, state and local government web resources and services.